Estación de Colina

Ultimos registro cada 15 minutos 79
Estación Fecha / Hora Temperatura Humedad Lluvia Velocidad Dirección Radiación Presion
79 Colina 05-05-2026 19:30 16,4 70 0 0 180 0 1013,4
78 Colina 05-05-2026 19:15 16,8 69 0 0 180 0 1013,3
77 Colina 05-05-2026 19:00 17,3 68 0 0,9 180 0 1013,1
76 Colina 05-05-2026 18:45 18,1 67 0 0,9 180 0 1012,9
75 Colina 05-05-2026 18:30 18,6 65 0 0,9 265 0 1012,6
74 Colina 05-05-2026 18:15 18,9 64 0 0,9 247 0 1012,4
73 Colina 05-05-2026 18:00 19,3 62 0 0,9 220 5 1012,3
72 Colina 05-05-2026 17:45 19,7 61 0 0,9 245 26 1012
71 Colina 05-05-2026 17:30 19,9 59 0 0,9 247 47 1011,6
70 Colina 05-05-2026 17:15 20,3 57 0 1,3 264 53 1011,3
69 Colina 05-05-2026 17:00 20,6 56 0 2,2 252 76 1011,3
68 Colina 05-05-2026 16:45 21,1 54 0 1,3 180 93 1011,4
67 Colina 05-05-2026 16:30 21,6 51 0 0,4 180 139 1011,2
66 Colina 05-05-2026 16:15 22,1 50 0 1,8 180 165 1011
65 Colina 05-05-2026 16:00 22,6 48 0 0,4 180 213 1011
64 Colina 05-05-2026 15:45 23,3 45 0 1,3 180 216 1010,9
63 Colina 05-05-2026 15:30 24,1 43 0 1,8 180 313 1010,8
62 Colina 05-05-2026 15:15 24,3 42 0 0,9 180 316 1010,7
61 Colina 05-05-2026 15:00 24,7 39 0 1,8 180 452 1010,6
60 Colina 05-05-2026 14:45 24,9 36 0 0,9 180 364 1010,4
59 Colina 05-05-2026 14:30 25,3 36 0 0 180 380 1010,3
58 Colina 05-05-2026 14:15 24,9 36 0 1,8 180 394 1010,3
57 Colina 05-05-2026 14:00 24,9 37 0 0 180 376 1010,3
56 Colina 05-05-2026 13:45 24,9 35 0 0 180 360 1010,2
55 Colina 05-05-2026 13:30 24,9 36 0 1,3 180 339 1010,2
54 Colina 05-05-2026 13:15 25 36 0 1,3 180 345 1010,2
53 Colina 05-05-2026 13:00 25 36 0 1,3 180 380 1010,2
52 Colina 05-05-2026 12:45 25 38 0 1,8 180 510 1010,3
51 Colina 05-05-2026 12:30 24,9 36 0 0,4 180 359 1010,5
50 Colina 05-05-2026 12:15 24,7 39 0 0,4 180 225 1010,8
49 Colina 05-05-2026 12:00 24,7 35 0 0 180 1032 1011
48 Colina 05-05-2026 11:45 23,9 37 0 0 180 953 1011,2
47 Colina 05-05-2026 11:30 23,3 37 0 0 180 325 1011,5
46 Colina 05-05-2026 11:15 22,6 40 0 0 180 308 1011,8
45 Colina 05-05-2026 11:00 22 44 0 0,4 180 376 1012,2
44 Colina 05-05-2026 10:45 21 45 0 0,4 180 396 1012,5
43 Colina 05-05-2026 10:30 20,6 45 0 0 180 717 1012,7
42 Colina 05-05-2026 10:15 19,8 44 0 0 180 737 1012,9
41 Colina 05-05-2026 10:00 18,2 48 0 0 180 459 1013,4
40 Colina 05-05-2026 09:45 16,5 54 0 0 180 489 1013,8
39 Colina 05-05-2026 09:30 14,9 60 0 0 180 299 1014,2
38 Colina 05-05-2026 09:15 14,2 61 0 0 180 151 1014,5
37 Colina 05-05-2026 09:00 13,6 61 0 0 180 149 1014,8
36 Colina 05-05-2026 08:45 12,1 67 0 0 180 171 1015
35 Colina 05-05-2026 08:30 10,8 70 0 0 180 93 1015,1
34 Colina 05-05-2026 08:15 9,8 72 0 0 180 86 1015,3
33 Colina 05-05-2026 08:00 9,3 72 0 0 180 44 1015,3
32 Colina 05-05-2026 07:45 9,2 72 0 0 180 26 1015,1
31 Colina 05-05-2026 07:30 8,9 73 0 0 180 11 1015,2
30 Colina 05-05-2026 07:15 9 73 0 0 180 0 1015,2
29 Colina 05-05-2026 07:00 9,2 72 0 0 180 0 1015
28 Colina 05-05-2026 06:45 9,1 71 0 0 180 0 1014,9
27 Colina 05-05-2026 06:30 8,9 72 0 0 180 0 1014,7
26 Colina 05-05-2026 06:15 8,8 73 0 0 180 0 1014,5
25 Colina 05-05-2026 06:00 7,8 74 0 0 180 0 1014,1
24 Colina 05-05-2026 05:45 7,4 75 0 0 180 0 1013,9
23 Colina 05-05-2026 05:30 7 75 0 0 180 0 1013,7
22 Colina 05-05-2026 05:15 6,9 75 0 0 180 0 1013,4
21 Colina 05-05-2026 05:00 6,8 75 0 0 180 0 1012,8
20 Colina 05-05-2026 04:45 6,9 72 0 0 180 0 1012,7
19 Colina 05-05-2026 04:30 7,2 71 0 0 180 0 1012,5
18 Colina 05-05-2026 04:15 7,6 71 0 0 180 0 1012,6
17 Colina 05-05-2026 04:00 7,7 72 0 0 180 0 1012,7
16 Colina 05-05-2026 03:45 7,3 72 0 0 180 0 1012,8
15 Colina 05-05-2026 03:30 7,3 71 0 0 180 0 1012,8
14 Colina 05-05-2026 03:15 8 71 0 0 180 0 1013
13 Colina 05-05-2026 03:00 8,4 71 0 0 180 0 1013,3
12 Colina 05-05-2026 02:45 8,8 70 0 0 180 0 1013,6
11 Colina 05-05-2026 02:30 9,1 69 0 0 180 0 1014,1
10 Colina 05-05-2026 02:15 9,7 68 0 0 180 0 1014,2
9 Colina 05-05-2026 02:00 9,6 69 0 0 180 0 1014,4
8 Colina 05-05-2026 01:45 9,5 69 0 0 180 0 1014,6
7 Colina 05-05-2026 01:30 9,7 67 0 0 180 0 1014,6
6 Colina 05-05-2026 01:15 9,6 68 0 0 180 0 1014,7
5 Colina 05-05-2026 01:00 9,8 68 0 0 180 0 1014,9
4 Colina 05-05-2026 00:45 9,9 69 0 0 180 0 1014,7
3 Colina 05-05-2026 00:30 10,4 67 0 0 180 0 1014,6
2 Colina 05-05-2026 00:15 10,9 67 0 0 180 0 1014,7
1 Colina 05-05-2026 00:00 11 68 0 0 180 0 1014,7